Time,TemperatureF,DewpointF,PressureIn,WindDirection,WindDirectionDegrees,WindSpeedMPH,WindSpeedGustMPH,Humidity,HourlyPrecipIn,Conditions,Clouds,dailyrainin,SoftwareType,DateUTC
2013-06-11 00:12:00,63.7,62.0,29.92,SE,138,0.0,0.0,95,0.00,,,0.00,weatherlink.com 1.10,2013-06-11 05:12:00,
2013-06-11 00:27:00,63.5,62.0,29.91,SE,138,0.0,0.0,95,0.00,,,0.00,weatherlink.com 1.10,2013-06-11 05:27:00,
2013-06-11 00:42:00,63.3,62.0,29.92,SE,138,0.0,0.0,95,0.00,,,0.00,weatherlink.com 1.10,2013-06-11 05:42:00,
2013-06-11 00:57:00,63.0,62.0,29.91,SE,138,0.0,0.0,95,0.00,,,0.00,weatherlink.com 1.10,2013-06-11 05:57:00,
2013-06-11 01:12:00,62.8,61.0,29.92,SE,138,0.0,0.0,95,0.00,,,0.00,weatherlink.com 1.10,2013-06-11 06:12:00,
2013-06-11 01:27:00,62.5,61.0,29.91,SE,138,0.0,0.0,95,0.00,,,0.00,weatherlink.com 1.10,2013-06-11 06:27:00,
2013-06-11 01:42:00,62.1,61.0,29.91,SE,138,0.0,0.0,95,0.00,,,0.00,weatherlink.com 1.10,2013-06-11 06:42:00,
2013-06-11 01:57:00,61.9,61.0,29.91,SE,138,0.0,0.0,96,0.00,,,0.00,weatherlink.com 1.10,2013-06-11 06:57:00,
2013-06-11 02:12:00,61.7,61.0,29.91,SE,138,0.0,0.0,96,0.00,,,0.00,weatherlink.com 1.10,2013-06-11 07:12:00,
2013-06-11 02:27:00,61.6,61.0,29.91,SE,138,0.0,0.0,96,0.00,,,0.00,weatherlink.com 1.10,2013-06-11 07:27:00,
2013-06-11 02:42:00,61.4,60.0,29.92,SE,138,0.0,0.0,96,0.00,,,0.00,weatherlink.com 1.10,2013-06-11 07:42:00,
2013-06-11 02:57:00,61.2,60.0,29.92,SE,138,0.0,0.0,96,0.00,,,0.00,weatherlink.com 1.10,2013-06-11 07:57:00,
2013-06-11 03:12:00,61.0,60.0,29.92,SE,138,0.0,0.0,96,0.00,,,0.00,weatherlink.com 1.10,2013-06-11 08:12:00,
2013-06-11 03:27:00,60.9,60.0,29.92,SE,138,0.0,0.0,96,0.00,,,0.00,weatherlink.com 1.10,2013-06-11 08:27:00,
2013-06-11 03:42:00,60.7,60.0,29.93,SE,138,0.0,0.0,96,0.00,,,0.00,weatherlink.com 1.10,2013-06-11 08:42:00,
2013-06-11 03:57:00,60.4,59.0,29.93,SE,138,0.0,0.0,96,0.00,,,0.00,weatherlink.com 1.10,2013-06-11 08:57:00,
2013-06-11 04:12:00,60.3,59.0,29.93,SE,138,0.0,0.0,96,0.00,,,0.00,weatherlink.com 1.10,2013-06-11 09:12:00,
2013-06-11 04:27:00,60.2,59.0,29.93,SE,138,0.0,0.0,96,0.00,,,0.00,weatherlink.com 1.10,2013-06-11 09:27:00,
2013-06-11 04:42:00,60.1,59.0,29.93,SE,138,0.0,0.0,96,0.00,,,0.00,weatherlink.com 1.10,2013-06-11 09:42:00,
2013-06-11 04:58:00,60.0,59.0,29.94,SE,138,0.0,0.0,97,0.00,,,0.00,weatherlink.com 1.10,2013-06-11 09:58:00,
2013-06-11 05:13:00,59.9,59.0,29.94,SE,138,0.0,0.0,96,0.00,,,0.00,weatherlink.com 1.10,2013-06-11 10:13:00,
2013-06-11 05:28:00,59.8,59.0,29.94,SE,138,0.0,0.0,97,0.00,,,0.00,weatherlink.com 1.10,2013-06-11 10:28:00,
2013-06-11 05:43:00,59.8,59.0,29.95,SE,138,0.0,0.0,97,0.00,,,0.00,weatherlink.com 1.10,2013-06-11 10:43:00,
2013-06-11 05:58:00,59.8,59.0,29.95,SE,138,0.0,0.0,97,0.00,,,0.00,weatherlink.com 1.10,2013-06-11 10:58:00,
2013-06-11 06:13:00,60.2,59.0,29.96,SE,138,0.0,0.0,97,0.00,,,0.00,weatherlink.com 1.10,2013-06-11 11:13:00,
2013-06-11 06:28:00,60.9,60.0,29.96,SE,138,0.0,0.0,98,0.00,,,0.00,weatherlink.com 1.10,2013-06-11 11:28:00,
2013-06-11 06:43:00,62.2,62.0,29.97,SE,138,0.0,0.0,98,0.00,,,0.00,weatherlink.com 1.10,2013-06-11 11:43:00,
2013-06-11 06:58:00,64.3,63.0,29.97,SE,138,0.0,0.0,96,0.00,,,0.00,weatherlink.com 1.10,2013-06-11 11:58:00,
2013-06-11 07:13:00,65.8,64.0,29.97,SE,138,0.0,0.0,94,0.00,,,0.00,weatherlink.com 1.10,2013-06-11 12:13:00,
2013-06-11 07:28:00,67.5,66.0,29.98,SE,138,0.0,0.0,94,0.00,,,0.00,weatherlink.com 1.10,2013-06-11 12:28:00,
2013-06-11 07:43:00,69.9,67.0,29.98,SE,138,0.0,1.0,90,0.00,,,0.00,weatherlink.com 1.10,2013-06-11 12:43:00,
2013-06-11 07:58:00,71.3,68.0,29.98,SE,138,0.0,1.0,88,0.00,,,0.00,weatherlink.com 1.10,2013-06-11 12:58:00,
2013-06-11 08:13:00,72.4,68.0,29.98,SE,129,1.0,2.0,87,0.00,,,0.00,weatherlink.com 1.10,2013-06-11 13:13:00,
2013-06-11 08:28:00,73.5,69.0,29.99,ENE,64,1.0,3.0,86,0.00,,,0.00,weatherlink.com 1.10,2013-06-11 13:28:00,
2013-06-11 08:43:00,74.6,69.0,29.98,ENE,62,1.0,2.0,83,0.00,,,0.00,weatherlink.com 1.10,2013-06-11 13:43:00,
2013-06-11 08:58:00,75.6,69.0,29.98,NE,42,0.0,4.0,80,0.00,,,0.00,weatherlink.com 1.10,2013-06-11 13:58:00,
2013-06-11 09:13:00,76.5,70.0,29.98,NE,50,0.0,5.0,79,0.00,,,0.00,weatherlink.com 1.10,2013-06-11 14:13:00,
2013-06-11 09:28:00,77.3,69.0,29.98,NE,40,1.0,4.0,75,0.00,,,0.00,weatherlink.com 1.10,2013-06-11 14:28:00,
2013-06-11 09:43:00,78.3,70.0,29.98,NE,34,1.0,4.0,75,0.00,,,0.00,weatherlink.com 1.10,2013-06-11 14:43:00,
2013-06-11 09:58:00,79.2,69.0,29.98,South,176,0.0,3.0,72,0.00,,,0.00,weatherlink.com 1.10,2013-06-11 14:58:00,
2013-06-11 10:14:00,79.8,70.0,29.98,East,98,0.0,3.0,73,0.00,,,0.00,weatherlink.com 1.10,2013-06-11 15:14:00,
2013-06-11 10:29:00,80.5,69.0,29.97,SSW,195,4.0,4.0,69,0.00,,,0.00,weatherlink.com 1.10,2013-06-11 15:29:00,
2013-06-11 10:44:00,81.4,69.0,29.97,SSE,166,2.0,6.0,66,0.00,,,0.00,weatherlink.com 1.10,2013-06-11 15:44:00,
2013-06-11 10:59:00,82.5,70.0,29.97,SSE,166,1.0,5.0,66,0.00,,,0.00,weatherlink.com 1.10,2013-06-11 15:59:00,
2013-06-11 11:14:00,82.9,69.0,29.98,South,171,1.0,4.0,63,0.00,,,0.00,weatherlink.com 1.10,2013-06-11 16:14:00,
2013-06-11 11:29:00,83.5,68.0,29.98,SSE,160,1.0,5.0,59,0.00,,,0.00,weatherlink.com 1.10,2013-06-11 16:29:00,
2013-06-11 11:44:00,84.3,68.0,29.98,SSE,153,0.0,4.0,59,0.00,,,0.00,weatherlink.com 1.10,2013-06-11 16:44:00,
2013-06-11 11:59:00,85.2,69.0,29.98,South,171,0.0,6.0,58,0.00,,,0.00,weatherlink.com 1.10,2013-06-11 16:59:00,
2013-06-11 12:14:00,86.4,70.0,29.97,SW,215,0.0,4.0,58,0.00,,,0.00,weatherlink.com 1.10,2013-06-11 17:14:00,
2013-06-11 12:29:00,87.3,70.0,29.97,SW,220,0.0,4.0,56,0.00,,,0.00,weatherlink.com 1.10,2013-06-11 17:29:00,
2013-06-11 12:44:00,87.6,71.0,29.96,SSE,166,0.0,6.0,58,0.00,,,0.00,weatherlink.com 1.10,2013-06-11 17:44:00,
2013-06-11 12:59:00,88.0,72.0,29.95,SW,230,4.0,6.0,59,0.00,,,0.00,weatherlink.com 1.10,2013-06-11 17:59:00,
2013-06-11 13:14:00,88.9,74.0,29.95,South,180,0.0,8.0,61,0.00,,,0.00,weatherlink.com 1.10,2013-06-11 18:14:00,
2013-06-11 13:29:00,89.8,73.0,29.94,SSE,154,1.0,6.0,57,0.00,,,0.00,weatherlink.com 1.10,2013-06-11 18:29:00,
2013-06-11 13:44:00,90.8,73.0,29.94,SE,126,3.0,5.0,56,0.00,,,0.00,weatherlink.com 1.10,2013-06-11 18:44:00,
2013-06-11 13:59:00,92.0,74.0,29.93,South,180,1.0,9.0,56,0.00,,,0.00,weatherlink.com 1.10,2013-06-11 18:59:00,
2013-06-11 14:14:00,92.9,74.0,29.93,SSE,166,3.0,9.0,54,0.00,,,0.00,weatherlink.com 1.10,2013-06-11 19:14:00,
2013-06-11 14:29:00,93.6,74.0,29.93,South,189,4.0,10.0,53,0.00,,,0.00,weatherlink.com 1.10,2013-06-11 19:29:00,
2013-06-11 14:44:00,93.5,74.0,29.92,SSW,206,4.0,6.0,53,0.00,,,0.00,weatherlink.com 1.10,2013-06-11 19:44:00,
2013-06-11 14:59:00,93.8,75.0,29.91,SSW,208,2.0,9.0,54,0.00,,,0.00,weatherlink.com 1.10,2013-06-11 19:59:00,
2013-06-11 15:14:00,94.0,75.0,29.91,South,176,2.0,7.0,54,0.00,,,0.00,weatherlink.com 1.10,2013-06-11 20:14:00,
2013-06-11 15:30:00,93.9,74.0,29.91,SSW,206,2.0,12.0,52,0.00,,,0.00,weatherlink.com 1.10,2013-06-11 20:30:00,
2013-06-11 15:45:00,94.1,74.0,29.91,SW,227,3.0,11.0,52,0.00,,,0.00,weatherlink.com 1.10,2013-06-11 20:45:00,
2013-06-11 16:00:00,93.8,73.0,29.91,SW,217,4.0,8.0,51,0.00,,,0.00,weatherlink.com 1.10,2013-06-11 21:00:00,
2013-06-11 16:15:00,94.8,72.0,29.92,WSW,242,6.0,11.0,47,0.00,,,0.00,weatherlink.com 1.10,2013-06-11 21:15:00,
2013-06-11 16:30:00,95.3,73.0,29.91,SW,226,3.0,7.0,48,0.00,,,0.00,weatherlink.com 1.10,2013-06-11 21:30:00,
2013-06-11 16:45:00,95.0,72.0,29.91,SSW,213,2.0,7.0,47,0.00,,,0.00,weatherlink.com 1.10,2013-06-11 21:45:00,
2013-06-11 17:00:00,93.4,73.0,29.91,SW,222,1.0,6.0,52,0.00,,,0.00,weatherlink.com 1.10,2013-06-11 22:00:00,
2013-06-11 17:15:00,92.7,74.0,29.91,SSW,203,3.0,5.0,54,0.00,,,0.00,weatherlink.com 1.10,2013-06-11 22:15:00,
2013-06-11 17:30:00,93.2,74.0,29.90,WSW,238,2.0,5.0,53,0.00,,,0.00,weatherlink.com 1.10,2013-06-11 22:30:00,
2013-06-11 17:45:00,92.8,75.0,29.90,SW,223,1.0,3.0,56,0.00,,,0.00,weatherlink.com 1.10,2013-06-11 22:45:00,
2013-06-11 18:00:00,92.4,74.0,29.90,South,171,1.0,4.0,55,0.00,,,0.00,weatherlink.com 1.10,2013-06-11 23:00:00,
2013-06-11 18:15:00,91.5,74.0,29.90,SSE,152,2.0,3.0,56,0.00,,,0.00,weatherlink.com 1.10,2013-06-11 23:15:00,
2013-06-11 18:30:00,91.3,74.0,29.90,SSE,153,1.0,3.0,57,0.00,,,0.00,weatherlink.com 1.10,2013-06-11 23:30:00,
2013-06-11 18:45:00,91.3,73.0,29.90,South,187,0.0,3.0,56,0.00,,,0.00,weatherlink.com 1.10,2013-06-11 23:45:00,
2013-06-11 19:00:00,90.6,73.0,29.89,SSE,157,0.0,4.0,57,0.00,,,0.00,weatherlink.com 1.10,2013-06-12 00:00:00,
2013-06-11 19:15:00,89.4,74.0,29.89,SSE,158,0.0,1.0,61,0.00,,,0.00,weatherlink.com 1.10,2013-06-12 00:15:00,
2013-06-11 19:30:00,87.4,76.0,29.89,SSE,158,0.0,0.0,69,0.00,,,0.00,weatherlink.com 1.10,2013-06-12 00:30:00,
2013-06-11 19:45:00,85.6,76.0,29.89,SSE,158,0.0,0.0,72,0.00,,,0.00,weatherlink.com 1.10,2013-06-12 00:45:00,
2013-06-11 20:00:00,84.2,76.0,29.89,SSE,158,0.0,0.0,75,0.00,,,0.00,weatherlink.com 1.10,2013-06-12 01:00:00,
2013-06-11 20:15:00,82.6,75.0,29.89,SSE,158,0.0,0.0,78,0.00,,,0.00,weatherlink.com 1.10,2013-06-12 01:15:00,
2013-06-11 20:30:00,81.5,75.0,29.89,SSE,158,0.0,0.0,80,0.00,,,0.00,weatherlink.com 1.10,2013-06-12 01:30:00,
2013-06-11 20:45:00,80.5,75.0,29.89,SSE,158,0.0,0.0,83,0.00,,,0.00,weatherlink.com 1.10,2013-06-12 01:45:00,
2013-06-11 21:00:00,79.7,75.0,29.89,SSE,158,0.0,0.0,84,0.00,,,0.00,weatherlink.com 1.10,2013-06-12 02:00:00,
2013-06-11 21:15:00,79.0,74.0,29.89,SSE,158,0.0,0.0,85,0.00,,,0.00,weatherlink.com 1.10,2013-06-12 02:15:00,
2013-06-11 21:30:00,78.1,74.0,29.90,SSE,158,0.0,0.0,87,0.00,,,0.00,weatherlink.com 1.10,2013-06-12 02:30:00,
2013-06-11 21:45:00,77.6,74.0,29.91,SSE,158,0.0,0.0,88,0.00,,,0.00,weatherlink.com 1.10,2013-06-12 02:45:00,
2013-06-11 22:00:00,77.2,74.0,29.91,SSE,158,0.0,0.0,89,0.00,,,0.00,weatherlink.com 1.10,2013-06-12 03:00:00,
2013-06-11 22:15:00,77.1,74.0,29.92,SSE,159,0.0,0.0,89,0.00,,,0.00,weatherlink.com 1.10,2013-06-12 03:15:00,
2013-06-11 22:30:00,77.2,74.0,29.92,SSE,159,0.0,0.0,89,0.00,,,0.00,weatherlink.com 1.10,2013-06-12 03:30:00,
2013-06-11 22:45:00,77.5,74.0,29.92,SSE,151,0.0,1.0,88,0.00,,,0.00,weatherlink.com 1.10,2013-06-12 03:45:00,
2013-06-11 23:00:00,77.7,74.0,29.92,SSE,151,0.0,0.0,87,0.00,,,0.00,weatherlink.com 1.10,2013-06-12 04:00:00,
2013-06-11 23:15:00,77.8,74.0,29.92,SSE,151,0.0,0.0,87,0.00,,,0.00,weatherlink.com 1.10,2013-06-12 04:15:00,
2013-06-11 23:30:00,77.3,74.0,29.93,SSE,151,0.0,0.0,88,0.00,,,0.00,weatherlink.com 1.10,2013-06-12 04:30:00,
2013-06-11 23:45:00,76.9,74.0,29.93,SSE,151,0.0,0.0,89,0.00,,,0.00,weatherlink.com 1.10,2013-06-12 04:45:00,